| time (UTC) | temp F | wind direction | speed MPH | gust MPH | rain 1hr in | rain 24hr in | rain mn in | humidity % | barometer mb |
| 20260902104522 | 81 | 254 | 0.0 | 4.0 | 0.00 | 0.00 | 0.00 | 88 | 1015.4 |
| 20260902103023 | 81 | 219 | 1.0 | 5.0 | 0.00 | 0.00 | 0.00 | 88 | 1015.4 |
| 20260902101539 | 81 | 245 | 0.0 | 2.0 | 0.00 | 0.00 | 0.00 | 88 | 1015.3 |
| 20260902100036 | 81 | 240 | 0.0 | 4.0 | 0.00 | 0.00 | 0.00 | 88 | 1015.3 |
| 20260902094536 | 81 | 275 | 0.0 | 6.0 | 0.00 | 0.00 | 0.00 | 88 | 1015.4 |
| 20260902093046 | 81 | 272 | 1.0 | 5.0 | 0.00 | 0.00 | 0.00 | 88 | 1015.4 |
| 20260902091610 | 81 | 296 | 1.0 | 3.0 | 0.00 | 0.00 | 0.00 | 88 | 1015.3 |
| 20260902090010 | 81 | 232 | 0.0 | 3.0 | 0.00 | 0.00 | 0.00 | 87 | 1015.2 |
| 20260902084512 | 81 | 270 | 0.0 | 8.0 | 0.00 | 0.00 | 0.00 | 87 | 1015.3 |
| 20260902083020 | 81 | 58 | 0.0 | 7.0 | 0.00 | 0.00 | 0.00 | 87 | 1015.4 |
| 20260902081526 | 81 | 271 | 1.0 | 5.0 | 0.00 | 0.00 | 0.00 | 87 | 1015.4 |
| 20260902080033 | 81 | 236 | 1.0 | 6.0 | 0.00 | 0.00 | 0.00 | 87 | 1015.5 |
| 20260902074520 | 81 | 223 | 0.0 | 6.0 | 0.00 | 0.00 | 0.00 | 86 | 1015.3 |
| 20260902073034 | 81 | 158 | 1.0 | 9.0 | 0.00 | 0.00 | 0.00 | 86 | 1015.4 |
| 20260902071512 | 81 | 208 | 2.0 | 6.0 | 0.00 | 0.00 | 0.00 | 86 | 1015.5 |
| 20260902070014 | 82 | 290 | 1.0 | 7.0 | 0.00 | 0.00 | 0.00 | 86 | 1015.4 |
| 20260902064533 | 82 | 217 | 4.0 | 8.0 | 0.00 | 0.00 | 0.00 | 86 | 1015.5 |
| 20260902063022 | 82 | 240 | 0.0 | 3.0 | 0.00 | 0.00 | 0.00 | 85 | 1015.5 |
| 20260902061528 | 82 | 268 | 0.0 | 5.0 | 0.00 | 0.00 | 0.00 | 85 | 1015.5 |
| 20260902060030 | 82 | 246 | 0.0 | 5.0 | 0.00 | 0.00 | 0.00 | 85 | 1015.3 |
| 20260902054544 | 83 | 288 | 0.0 | 5.0 | 0.00 | 0.00 | 0.00 | 84 | 1015.6 |
| 20260902053042 | 83 | 279 | 0.0 | 5.0 | 0.00 | 0.00 | 0.00 | 84 | 1015.6 |
| 20260902051554 | 83 | 270 | 0.0 | 5.0 | 0.00 | 0.00 | 0.00 | 84 | 1015.5 |
| 20260902050051 | 83 | 289 | 0.0 | 4.0 | 0.00 | 0.00 | 0.00 | 84 | 1015.5 |
| 20260902044600 | 83 | 301 | 2.0 | 5.0 | 0.00 | 0.00 | 0.00 | 84 | 1015.5 |
| 20260902043100 | 83 | 294 | 3.0 | 8.0 | 0.00 | 0.00 | 0.00 | 83 | 1015.4 |
| 20260902041603 | 84 | 271 | 3.0 | 7.0 | 0.00 | 0.00 | 0.00 | 83 | 1015.6 |
| 20260902041501 | 84 | 256 | 2.0 | 7.0 | 0.00 | 0.00 | 0.00 | 83 | 1015.7 |
| 20260902040009 | 84 | 275 | 4.0 | 8.0 | 0.00 | 0.00 | 0.00 | 82 | 1015.7 |
| 20260902034513 | 84 | 248 | 3.0 | 7.0 | 0.00 | 0.00 | 0.00 | 81 | 1015.8 |
| 20260902033037 | 84 | 273 | 1.0 | 6.0 | 0.00 | 0.00 | 0.00 | 80 | 1015.7 |
| 20260902031540 | 85 | 242 | 3.0 | 5.0 | 0.00 | 0.00 | 0.00 | 80 | 1015.5 |
| 20260902030026 | 85 | 254 | 2.0 | 5.0 | 0.00 | 0.00 | 0.00 | 79 | 1015.2 |
| 20260902024531 | 85 | 255 | 1.0 | 5.0 | 0.00 | 0.00 | 0.00 | 78 | 1015.0 |
| 20260902023020 | 84 | 157 | 0.0 | 0.0 | 0.00 | 0.00 | 0.00 | 78 | 1015.0 |
| 20260902021512 | 84 | 157 | 0.0 | 2.0 | 0.00 | 0.00 | 0.00 | 78 | 1014.8 |
| 20260902020037 | 84 | 157 | 0.0 | 2.0 | 0.00 | 0.00 | 0.00 | 77 | 1014.6 |
| 20260902014506 | 84 | 157 | 0.0 | 1.0 | 0.00 | 0.00 | 0.00 | 77 | 1014.5 |
| 20260902013010 | 84 | 119 | 0.0 | 2.0 | 0.00 | 0.00 | 0.00 | 77 | 1014.3 |
| 20260902011517 | 85 | 77 | 0.0 | 1.0 | 0.00 | 0.00 | 0.00 | 76 | 1014.2 |
| 20260902010023 | 85 | 73 | 0.0 | 1.0 | 0.00 | 0.00 | 0.00 | 75 | 1014.3 |
| 20260902004519 | 85 | 73 | 0.0 | 2.0 | 0.00 | 0.00 | 0.00 | 75 | 1014.5 |
| 20260902003024 | 86 | 73 | 1.0 | 6.0 | 0.00 | 0.00 | 0.00 | 74 | 1014.5 |
| 20260902001517 | 87 | 132 | 0.0 | 2.0 | 0.00 | 0.00 | 0.00 | 73 | 1014.3 |
| 20260902000028 | 87 | 132 | 1.0 | 2.0 | 0.00 | 0.00 | 0.00 | 73 | 1014.2 |
| 20260901234528 | 87 | 132 | 2.0 | 3.0 | 0.00 | 0.00 | 0.00 | 73 | 1014.1 |
| 20260901233030 | 87 | 93 | 0.0 | 4.0 | 0.00 | 0.00 | 0.00 | 73 | 1014.3 |
| 20260901231544 | 87 | 90 | 2.0 | 6.0 | 0.00 | 0.00 | 0.00 | 73 | 1014.4 |
| 20260901230054 | 87 | 68 | 2.0 | 5.0 | 0.00 | 0.00 | 0.00 | 73 | 1014.5 |
| 20260901224559 | 87 | 75 | 2.0 | 6.0 | 0.00 | 0.00 | 0.00 | 73 | 1014.4 |
| 20260901223004 | 88 | 68 | 5.0 | 7.0 | 0.00 | 0.00 | 0.00 | 73 | 1014.4 |
| 20260901221518 | 88 | 73 | 5.0 | 8.0 | 0.00 | 0.00 | 0.00 | 73 | 1014.3 |
| 20260901220015 | 88 | 78 | 4.0 | 8.0 | 0.00 | 0.00 | 0.00 | 73 | 1014.4 |
| 20260901214512 | 88 | 74 | 4.0 | 9.0 | 0.00 | 0.00 | 0.00 | 73 | 1014.7 |
| 20260901213010 | 88 | 65 | 3.0 | 10.0 | 0.00 | 0.00 | 0.00 | 73 | 1014.8 |
| 20260901211517 | 88 | 60 | 4.0 | 9.0 | 0.00 | 0.00 | 0.00 | 72 | 1014.6 |
| 20260901210029 | 88 | 62 | 5.0 | 10.0 | 0.00 | 0.00 | 0.00 | 72 | 1014.5 |
| 20260901204536 | 89 | 51 | 5.0 | 10.0 | 0.00 | 0.00 | 0.00 | 71 | 1014.7 |
| 20260901203045 | 89 | 56 | 8.0 | 12.0 | 0.00 | 0.00 | 0.00 | 71 | 1014.9 |
| 20260901201538 | 90 | 329 | 4.0 | 11.0 | 0.00 | 0.00 | 0.00 | 71 | 1015.0 |
| 20260901200054 | 90 | 84 | 5.0 | 10.0 | 0.00 | 0.00 | 0.00 | 72 | 1015.1 |
| 20260901194551 | 90 | 65 | 5.0 | 9.0 | 0.00 | 0.00 | 0.00 | 73 | 1015.4 |
| 20260901193058 | 90 | 317 | 5.0 | 9.0 | 0.00 | 0.00 | 0.00 | 71 | 1015.4 |
| 20260901191602 | 89 | 304 | 6.0 | 8.0 | 0.00 | 0.00 | 0.00 | 73 | 1015.7 |
| 20260901190054 | 89 | 298 | 5.0 | 7.0 | 0.00 | 0.00 | 0.00 | 75 | 1015.8 |
| 20260901184548 | 89 | 330 | 5.0 | 9.0 | 0.00 | 0.00 | 0.00 | 75 | 1016.1 |
| 20260901183100 | 88 | 52 | 3.0 | 9.0 | 0.00 | 0.00 | 0.00 | 79 | 1016.2 |
| 20260901183006 | 88 | 59 | 3.0 | 9.0 | 0.00 | 0.00 | 0.00 | 79 | 1016.2 |
| 20260901181515 | 88 | 311 | 8.0 | 12.0 | 0.00 | 0.00 | 0.00 | 77 | 1016.3 |
| 20260901180022 | 88 | 360 | 3.0 | 10.0 | 0.00 | 0.00 | 0.00 | 81 | 1016.4 |
| 20260901174533 | 87 | 326 | 4.0 | 11.0 | 0.00 | 0.00 | 0.00 | 81 | 1016.7 |
| 20260901173027 | 86 | 331 | 7.0 | 11.0 | 0.00 | 0.00 | 0.00 | 83 | 1017.0 |
| 20260901171544 | 86 | 331 | 6.0 | 11.0 | 0.00 | 0.00 | 0.00 | 84 | 1017.3 |
| 20260901170044 | 87 | 315 | 7.0 | 11.0 | 0.00 | 0.00 | 0.00 | 84 | 1017.5 |
| 20260901164533 | 86 | 355 | 6.0 | 10.0 | 0.00 | 0.00 | 0.00 | 84 | 1017.5 |
| 20260901163030 | 85 | 360 | 7.0 | 10.0 | 0.00 | 0.00 | 0.00 | 85 | 1017.6 |
| 20260901161535 | 85 | 342 | 6.0 | 10.0 | 0.00 | 0.00 | 0.00 | 85 | 1017.6 |
| 20260901160023 | 84 | 336 | 8.0 | 11.0 | 0.00 | 0.00 | 0.00 | 85 | 1017.6 |
| 20260901154531 | 85 | 317 | 4.0 | 11.0 | 0.00 | 0.00 | 0.00 | 86 | 1017.4 |
| 20260901153036 | 84 | 360 | 8.0 | 10.0 | 0.00 | 0.00 | 0.00 | 86 | 1017.3 |
| 20260901151537 | 84 | 342 | 6.0 | 10.0 | 0.00 | 0.00 | 0.00 | 87 | 1017.4 |
| 20260901150042 | 84 | 349 | 8.0 | 13.0 | 0.00 | 0.00 | 0.00 | 88 | 1017.3 |
| 20260901144541 | 83 | 323 | 6.0 | 10.0 | 0.00 | 0.00 | 0.00 | 89 | 1017.4 |
| 20260901143057 | 82 | 348 | 6.0 | 10.0 | 0.00 | 0.00 | 0.00 | 89 | 1017.6 |
| 20260901141605 | 82 | 339 | 5.0 | 9.0 | 0.00 | 0.00 | 0.00 | 90 | 1017.8 |
| 20260901140033 | 81 | 342 | 5.0 | 10.0 | 0.00 | 0.00 | 0.00 | 90 | 1017.7 |
| 20260901134540 | 81 | 345 | 5.0 | 9.0 | 0.00 | 0.00 | 0.00 | 90 | 1017.7 |
| 20260901133050 | 81 | 326 | 5.0 | 9.0 | 0.00 | 0.00 | 0.00 | 90 | 1017.7 |
| 20260901131543 | 81 | 317 | 6.0 | 9.0 | 0.00 | 0.00 | 0.00 | 90 | 1017.4 |
| 20260901130031 | 81 | 325 | 4.0 | 7.0 | 0.00 | 0.00 | 0.00 | 90 | 1017.2 |
| 20260901124535 | 81 | 333 | 4.0 | 8.0 | 0.00 | 0.00 | 0.00 | 90 | 1016.8 |
| 20260901123040 | 81 | 355 | 4.0 | 8.0 | 0.00 | 0.00 | 0.00 | 90 | 1016.7 |
| 20260901121557 | 81 | 332 | 4.0 | 9.0 | 0.00 | 0.00 | 0.00 | 90 | 1016.4 |
| 20260901120006 | 81 | 14 | 4.0 | 9.0 | 0.00 | 0.00 | 0.00 | 90 | 1016.3 |
| 20260901114511 | 80 | 355 | 5.0 | 9.0 | 0.00 | 0.00 | 0.00 | 90 | 1016.2 |
| 20260901113017 | 81 | 25 | 0.0 | 7.0 | 0.00 | 0.00 | 0.00 | 89 | 1016.3 |
| 20260901111510 | 81 | 355 | 5.0 | 8.0 | 0.00 | 0.00 | 0.00 | 89 | 1016.2 |
| 20260901110058 | 80 | 355 | 4.0 | 6.0 | 0.00 | 0.00 | 0.00 | 89 | 1016.2 |